Regional Weather Roundup
Issued by NWS

Home | Current Version | Previous Version | Text Only | Print | Product List | Glossary On
Versions: 1 2 3 4 5 6 7 8 9 10 11 12 13 14 15 16 17 18 19 20 21 22 23 24 25 26 27 28 29 30 31 32 33 34 35 36 37 38 39 40 41 42 43 44 45 46 47 48 49 50
000
ASUS43 KDTX 261301
RWRMI
MICHIGAN HOURLY REGIONAL WEATHER ROUNDUP
NATIONAL WEATHER SERVICE DETROIT/PONTIAC MI
900 AM EDT SUN APR 26 2015

NOTE: "FAIR" INDICATES FEW OR NO CLOUDS BELOW 12,000 FEET WITH NO
SIGNIFICANT WEATHER AND/OR OBSTRUCTION TO VISIBILITY.

MIZ047>049-052>055-059>063-066>070-074>076-081>083-261400-
SOUTHEAST LOWER MICHIGAN

CITY           SKY/WX    TMP DP  RH WIND       PRES   REMARKS
ADRIAN         SUNNY     43  28  55 NE10      29.91R
ALMA           SUNNY     42  27  56 N6        29.96S
ANN ARBOR      SUNNY     44  28  53 N10       29.90S
BAD AXE        SUNNY     41  32  70 N3        29.94S
CARO           SUNNY     42  33  69 CALM      29.94R
DETROIT CITY   SUNNY     43  28  55 N9        29.91R
DETROIT        SUNNY     47  28  47 N9        29.91S
FLINT          SUNNY     45  30  55 N7        29.95R
GROSSE ILE     SUNNY     45  28  53 N13       29.88S
HILLSDALE      SUNNY     42  26  53 NE9       29.90S
HOWELL         SUNNY     40  30  66 NE8       29.92S WCI  34

CITY           SKY/WX    TMP DP  RH WIND       PRES   REMARKS
JACKSON        SUNNY     41  29  62 NE10      29.92S
LAMBERTVILLE   SUNNY     45  28  53 N9        29.90R
LANSING        SUNNY     41  27  57 N10       29.95S
LAPEER         FAIR      43  29  59 NE7       29.93R
MASON          SUNNY     40  28  61 N3        29.93S
MT. CLEMENS    SUNNY     43  31  62 N14       29.88R
PONTIAC        SUNNY     42  27  55 N10       29.91R
PORT HOPE        N/A     41  33  73 N6        29.94R
PORT HURON     SUNNY     43  32  65 N8        29.91S
TRI CITIES     SUNNY     42  29  59 N9        29.96R
MIDLAND        FAIR      42  27  56 CALM      29.96R
TROY           SUNNY     45  28  51 N8        29.92R
SAGINAW HB     SUNNY     43  32  65 N9        29.95R
$$
MIZ043>046-050>051-056>058-064>065-071>073-077>080-261400-
SOUTHWEST LOWER MICHIGAN

CITY           SKY/WX    TMP DP  RH WIND       PRES   REMARKS
BATTLE CREEK   SUNNY     43  28  55 N7        29.94R
BENTON HARBOR  SUNNY     42  28  57 NE6       29.96R
BIG RAPIDS     SUNNY     40  27  59 NE3       29.96S
COLDWATER      SUNNY     40  29  63 NE9       29.92S WCI  34
FREMONT        FAIR      42  23  46 N6        29.98R
HOLLAND        SUNNY     46  26  45 N7        29.98R
GRAND RAPIDS   SUNNY     43  26  51 NE9       29.96R
IONIA          FAIR      42  27  54 NE8       29.95R
KALAMAZOO      SUNNY     43  29  57 N5        29.95R
LUDINGTON      SUNNY     42  30  61 NE3       30.01R
MARSHALL       SUNNY     40  28  60 N6        29.93R
MOUNT PLEASANT SUNNY     41  28  60 N5        29.96S
MUSKEGON       SUNNY     45  24  43 N7        29.98S
SOUTH HAVEN    SUNNY     44  27  51 N6        29.97R
$$
MIZ016>042-261400-
NORTHERN LOWER MICHIGAN

CITY           SKY/WX    TMP DP  RH WIND       PRES   REMARKS
BEAVER ISLAND  SUNNY     39  29  65 N5        30.02R
BELLAIRE       SUNNY     36  28  73 CALM      30.02R
CADILLAC       SUNNY     40  27  59 N6        29.96S
CHARLEVOIX     SUNNY     37  32  82 NW7       30.04R WCI  32
FRANKFORT      SUNNY     43  28  55 CALM      30.01S
GAYLORD        SUNNY     41  26  55 NE5       29.97R
GRAYLING       SUNNY     40  27  58 CALM      29.97R
HARBOR SPRINGS SUNNY     35  26  68 SW3       30.01R
HOUGHTON LAKE  SUNNY     42  26  53 NE6       29.97R
MANISTEE       SUNNY     39  25  56 N5        30.02R
OSCODA         SUNNY     42  31  64 NW5       29.95S
PELLSTON       SUNNY     40  28  62 N7        30.01R
ROGERS CITY    PTSUNNY   39  31  73 NW7       30.00R WCI  34
TRAVERSE CITY  SUNNY     39  29  67 NE5       30.00R
$$
MIZ007>008-015-261400-
EASTERN UPPER MICHIGAN

CITY           SKY/WX    TMP DP  RH WIND       PRES   REMARKS
KINROSS        PTSUNNY   37  30  75 N6        30.01R WCI  33
MACKINAC ISLAN SUNNY     39  28  65 N6        30.00S WCI  35
NEWBERRY       SUNNY     36  29  76 N3        30.02R
S. S. MARIE    PTSUNNY   38  29  70 NW7       30.01R WCI  33
$$
MIZ004>006-011>014-085-261400-
CENTRAL UPPER MICHIGAN

CITY           SKY/WX    TMP DP  RH WIND       PRES   REMARKS
MANISTIQUE     SUNNY     38  30  70 N7        30.03S WCI  33
ESCANABA       SUNNY     39  25  56 N7        30.05R WCI  34
MENOMINEE      SUNNY     37  21  52 N8        30.05R WCI  31
SAWYER-GWINN   SUNNY     37  27  65 N13       30.06R WCI  29
$$
MIZ001>003-009>011-084-261400-
WESTERN UPPER MICHIGAN

CITY           SKY/WX    TMP DP  RH WIND       PRES   REMARKS
IRON MOUNTAIN  SUNNY     38  21  50 N7        30.05R WCI  33
HOUGHTON       SUNNY     41  24  51 E3        30.09R
COPPER HARBOR    N/A     37  30  75 NE3       30.12R
IRONWOOD       SUNNY     32  28  86 W5        30.10R WCI  27
$$

ABBREVIATIONS USED IN REMARKS
   TC - TEMPERATURE IN CELSIUS
  WCI - WIND CHILL INDEX
   HX - HEAT INDEX
  VSB - VISIBILITY




USA.gov is the U.S. government's official web portal to all federal, state and local government web resources and services.